Zurück zum Katalog

CZ-6A DEB

AktivSSO
NORAD 56599·DEBRIS·🇨🇳 China

Gestartet Nov 11, 2022 von Taiyuan Satellite Launch Center

Loading…

Nächste Überflüge (nächste 24 Stunden)

TLE

AktuellSource: Space-Track

Epoche: Sep 11, 2026, 19:04 UTC

1 56599U 22151ADX 26254.79446684  .00001064  00000-0  38031-3 0  9991
2 56599  98.6690 278.0346 0110705 197.1025 162.6416 14.32813041176730

Verfolge CZ-6A DEB in Echtzeit mit AllMySat

Download on the App Store